Tracking 23610 objects as of 19-Sep-2021
HD Live streaming from Space Station
objects crossing your sky now

DELTA 1 DEB

Track DELTA 1 DEB now!
10-day predictions


NORAD ID: 15788
Int'l Code: 1978-026GT
Perigee: 848.1 km
Apogee: 1,028.1 km
Inclination: 98.8 °
Period: 103.6 minutes
Semi major axis: 7309 km
RCS: 0.005 m2 (small)
Launch date: March 5, 1978
Source: United States (US)
Launch site: AIR FORCE WESTERN TEST RANGE (AFWTR)

Note: This is SATELLITE DEBRIS
aabbcc
Your satellite tracking list
Your tracking list is empty




NASA's NSSDC Master Catalog

Two Line Element Set (TLE):
1 15788U 78026GT  21261.41643105  .00000319  00000-0  27910-3 0  9993
2 15788  98.7713 229.2805 0123106 283.4341 228.5424 13.89334619962407
Source of the keplerian elements: AFSPC